| time (UTC) | temp F | wind direction | speed MPH | gust MPH | rain 1hr in | rain 24hr in | rain mn in | humidity % | barometer mb |
| 20260507223025 | 69 | 43 | 0.0 | 0.0 | 0.00 | 0.01 | 0.00 | 52 | 1008.6 |
| 20260507221522 | 69 | 51 | 0.0 | 0.0 | 0.00 | 0.01 | 0.00 | 54 | 1008.6 |
| 20260507220019 | 69 | 55 | 0.0 | 0.0 | 0.00 | 0.01 | 0.00 | 57 | 1008.6 |
| 20260507214518 | 69 | 57 | 0.0 | 0.0 | 0.00 | 0.01 | 0.01 | 59 | 1008.6 |
| 20260507213019 | 69 | 84 | 0.0 | 0.0 | 0.00 | 0.01 | 0.01 | 59 | 1008.8 |
| 20260507211517 | 69 | 43 | 0.0 | 0.0 | 0.00 | 0.01 | 0.01 | 59 | 1008.9 |
| 20260507210016 | 69 | 50 | 0.0 | 0.0 | 0.00 | 0.01 | 0.01 | 60 | 1008.9 |
| 20260507204516 | 69 | 38 | 0.0 | 0.0 | 0.00 | 0.01 | 0.01 | 61 | 1009.1 |
| 20260507203015 | 69 | 19 | 0.0 | 0.0 | 0.00 | 0.01 | 0.01 | 60 | 1009.3 |
| 20260507201514 | 69 | 71 | 0.0 | 0.0 | 0.00 | 0.01 | 0.01 | 59 | 1009.4 |
| 20260507200014 | 69 | 31 | 0.0 | 0.0 | 0.00 | 0.01 | 0.01 | 60 | 1009.3 |
| 20260507194514 | 69 | 46 | 0.0 | 0.0 | 0.00 | 0.01 | 0.01 | 60 | 1009.3 |
| 20260507193017 | 70 | 17 | 0.0 | 0.0 | 0.00 | 0.01 | 0.01 | 59 | 1009.3 |
| 20260507191512 | 70 | 30 | 0.0 | 0.0 | 0.00 | 0.01 | 0.01 | 59 | 1009.1 |
| 20260507190012 | 70 | 46 | 0.0 | 0.0 | 0.00 | 0.01 | 0.01 | 59 | 1009.0 |
| 20260507184511 | 70 | 23 | 0.0 | 0.0 | 0.00 | 0.01 | 0.01 | 59 | 1008.8 |
| 20260507183013 | 70 | 16 | 0.0 | 0.0 | 0.00 | 0.01 | 0.01 | 59 | 1008.7 |
| 20260507181510 | 70 | 26 | 0.0 | 0.0 | 0.00 | 0.01 | 0.01 | 58 | 1008.9 |
| 20260507180014 | 71 | 20 | 0.0 | 0.0 | 0.00 | 0.01 | 0.01 | 58 | 1008.7 |
| 20260507174512 | 72 | 22 | 0.0 | 0.0 | 0.00 | 0.01 | 0.01 | 56 | 1008.6 |
| 20260507173009 | 72 | 5 | 0.0 | 0.0 | 0.00 | 0.01 | 0.01 | 57 | 1008.5 |
| 20260507171509 | 73 | 355 | 0.0 | 0.0 | 0.00 | 0.01 | 0.01 | 57 | 1008.5 |
| 20260507170007 | 74 | 29 | 0.0 | 0.0 | 0.00 | 0.01 | 0.01 | 56 | 1008.6 |
| 20260507164509 | 76 | 202 | 0.0 | 0.0 | 0.00 | 0.01 | 0.01 | 59 | 1008.6 |
| 20260507163006 | 76 | 202 | 0.0 | 0.0 | 0.00 | 0.01 | 0.01 | 53 | 1008.5 |
| 20260507161504 | 76 | 202 | 0.0 | 0.0 | 0.00 | 0.01 | 0.01 | 53 | 1008.6 |
| 20260507160004 | 77 | 201 | 0.0 | 0.0 | 0.00 | 0.01 | 0.01 | 49 | 1008.8 |
| 20260507154501 | 76 | 191 | 0.0 | 0.0 | 0.00 | 0.01 | 0.01 | 52 | 1008.9 |
| 20260507153001 | 77 | 178 | 0.0 | 0.0 | 0.00 | 0.01 | 0.01 | 49 | 1008.9 |
| 20260507151604 | 78 | 84 | 0.0 | 0.0 | 0.00 | 0.01 | 0.01 | 52 | 1009.0 |
| 20260507150058 | 78 | 199 | 0.0 | 0.0 | 0.00 | 0.01 | 0.01 | 47 | 1009.2 |
| 20260507144603 | 77 | 174 | 0.0 | 0.0 | 0.00 | 0.01 | 0.01 | 48 | 1009.2 |
| 20260507143109 | 78 | 169 | 0.0 | 0.0 | 0.00 | 0.01 | 0.01 | 46 | 1009.1 |
| 20260507141611 | 78 | 219 | 0.0 | 0.0 | 0.00 | 0.01 | 0.01 | 48 | 1009.4 |
| 20260507140054 | 77 | 140 | 0.0 | 0.0 | 0.00 | 0.01 | 0.01 | 49 | 1009.7 |
| 20260507134554 | 78 | 264 | 0.0 | 0.0 | 0.00 | 0.01 | 0.01 | 48 | 1009.7 |
| 20260507133050 | 77 | 240 | 0.0 | 0.0 | 0.00 | 0.01 | 0.01 | 47 | 1009.8 |
| 20260507131600 | 78 | 234 | 0.0 | 0.0 | 0.00 | 0.01 | 0.01 | 47 | 1009.9 |
| 20260507130047 | 78 | 234 | 0.0 | 0.0 | 0.00 | 0.01 | 0.01 | 46 | 1010.0 |
| 20260507124544 | 78 | 259 | 0.0 | 0.0 | 0.00 | 0.01 | 0.01 | 45 | 1010.4 |
| 20260507123057 | 78 | 254 | 0.0 | 0.0 | 0.00 | 0.01 | 0.01 | 47 | 1010.4 |
| 20260507121544 | 79 | 272 | 0.0 | 0.0 | 0.00 | 0.01 | 0.01 | 47 | 1010.6 |
| 20260507120040 | 79 | 188 | 0.0 | 0.0 | 0.00 | 0.01 | 0.01 | 46 | 1010.6 |
| 20260507114538 | 78 | 155 | 0.0 | 0.0 | 0.00 | 0.01 | 0.01 | 48 | 1010.7 |
| 20260507113036 | 76 | 155 | 0.0 | 0.0 | 0.00 | 0.01 | 0.01 | 49 | 1010.8 |
| 20260507111534 | 76 | 144 | 0.0 | 0.0 | 0.00 | 0.01 | 0.01 | 51 | 1011.0 |
| 20260507110033 | 76 | 113 | 0.0 | 0.0 | 0.00 | 0.01 | 0.01 | 51 | 1011.4 |
| 20260507104529 | 75 | 281 | 0.0 | 0.0 | 0.00 | 0.01 | 0.01 | 55 | 1011.5 |
| 20260507103027 | 74 | 207 | 0.0 | 0.0 | 0.00 | 0.01 | 0.01 | 55 | 1011.7 |
| 20260507101524 | 73 | 227 | 0.0 | 0.0 | 0.00 | 0.01 | 0.01 | 58 | 1011.7 |
| 20260507100027 | 74 | 137 | 0.0 | 0.0 | 0.00 | 0.01 | 0.01 | 60 | 1011.5 |
| 20260507094519 | 72 | 126 | 0.0 | 0.0 | 0.00 | 0.01 | 0.01 | 60 | 1011.6 |
| 20260507093018 | 71 | 161 | 0.0 | 0.0 | 0.00 | 0.01 | 0.01 | 63 | 1011.6 |
| 20260507091522 | 71 | 135 | 0.0 | 0.0 | 0.00 | 0.01 | 0.01 | 62 | 1011.7 |
| 20260507090016 | 72 | 152 | 0.0 | 0.0 | 0.00 | 0.01 | 0.01 | 61 | 1011.9 |
| 20260507084515 | 70 | 135 | 0.0 | 0.0 | 0.00 | 0.01 | 0.01 | 62 | 1011.9 |
| 20260507083009 | 69 | 148 | 0.0 | 0.0 | 0.00 | 0.01 | 0.01 | 64 | 1011.9 |
| 20260507081505 | 67 | 222 | 0.0 | 0.0 | 0.00 | 0.01 | 0.01 | 70 | 1012.1 |
| 20260507080001 | 66 | 206 | 0.0 | 0.0 | 0.00 | 0.01 | 0.01 | 73 | 1012.3 |
| 20260507074559 | 65 | 167 | 0.0 | 0.0 | 0.00 | 0.01 | 0.01 | 74 | 1012.2 |
| 20260507073057 | 65 | 168 | 0.0 | 0.0 | 0.00 | 0.01 | 0.01 | 74 | 1012.0 |
| 20260507071552 | 64 | 223 | 0.0 | 0.0 | 0.00 | 0.01 | 0.01 | 75 | 1012.0 |
| 20260507070101 | 63 | 163 | 0.0 | 0.0 | 0.00 | 0.01 | 0.01 | 76 | 1011.9 |
| 20260507064618 | 63 | 141 | 0.0 | 0.0 | 0.00 | 0.01 | 0.01 | 78 | 1011.8 |
| 20260507063043 | 61 | 104 | 0.0 | 0.0 | 0.00 | 0.01 | 0.01 | 80 | 1012.0 |
| 20260507061539 | 60 | 104 | 0.0 | 0.0 | 0.00 | 0.01 | 0.01 | 81 | 1012.2 |
| 20260507060041 | 58 | 17 | 0.0 | 0.0 | 0.00 | 0.01 | 0.01 | 82 | 1012.3 |
| 20260507054535 | 58 | 17 | 0.0 | 0.0 | 0.00 | 0.01 | 0.01 | 82 | 1012.3 |
| 20260507053037 | 58 | 53 | 0.0 | 0.0 | 0.00 | 0.01 | 0.01 | 82 | 1012.1 |
| 20260507051536 | 58 | 53 | 0.0 | 0.0 | 0.00 | 0.01 | 0.01 | 82 | 1012.0 |
| 20260507050040 | 57 | 88 | 0.0 | 0.0 | 0.00 | 0.01 | 0.01 | 82 | 1012.0 |
| 20260507044529 | 57 | 68 | 0.0 | 0.0 | 0.00 | 0.01 | 0.01 | 82 | 1012.0 |
| 20260507043025 | 57 | 59 | 0.0 | 0.0 | 0.00 | 0.01 | 0.01 | 82 | 1012.0 |
| 20260507041526 | 57 | 188 | 0.0 | 0.0 | 0.00 | 0.01 | 0.01 | 82 | 1011.7 |
| 20260507040021 | 57 | 250 | 0.0 | 0.0 | 0.00 | 0.01 | 0.01 | 81 | 1011.4 |
| 20260507034519 | 57 | 250 | 0.0 | 0.0 | 0.00 | 0.01 | 0.01 | 81 | 1011.1 |
| 20260507033021 | 58 | 324 | 0.0 | 0.0 | 0.00 | 0.01 | 0.01 | 79 | 1011.0 |
| 20260507031517 | 58 | 69 | 0.0 | 0.0 | 0.00 | 0.01 | 0.01 | 80 | 1011.2 |
| 20260507030025 | 57 | 32 | 0.0 | 0.0 | 0.00 | 0.01 | 0.01 | 81 | 1011.4 |
| 20260507024522 | 57 | 41 | 0.0 | 0.0 | 0.00 | 0.01 | 0.01 | 82 | 1011.8 |
| 20260507023014 | 57 | 348 | 0.0 | 0.0 | 0.00 | 0.01 | 0.01 | 82 | 1012.0 |
| 20260507021513 | 57 | 348 | 0.0 | 0.0 | 0.00 | 0.01 | 0.01 | 82 | 1012.0 |
| 20260507020014 | 57 | 348 | 0.0 | 0.0 | 0.00 | 0.01 | 0.01 | 82 | 1012.0 |
| 20260507014514 | 57 | 347 | 0.0 | 0.0 | 0.00 | 0.01 | 0.01 | 82 | 1012.2 |
| 20260507013014 | 57 | 348 | 0.0 | 0.0 | 0.01 | 0.01 | 0.01 | 82 | 1012.0 |
| 20260507011512 | 57 | 342 | 0.0 | 0.0 | 0.01 | 0.01 | 0.01 | 82 | 1011.7 |
| 20260507010012 | 58 | 342 | 0.0 | 0.0 | 0.01 | 0.01 | 0.01 | 81 | 1011.6 |
| 20260507004509 | 58 | 115 | 0.0 | 0.0 | 0.01 | 0.01 | 0.01 | 81 | 1011.6 |
| 20260507003009 | 58 | 109 | 0.0 | 0.0 | 0.00 | 0.00 | 0.00 | 80 | 1011.4 |
| 20260507001508 | 58 | 108 | 0.0 | 0.0 | 0.00 | 0.00 | 0.00 | 80 | 1011.6 |
| 20260507000004 | 58 | 22 | 0.0 | 0.0 | 0.00 | 0.00 | 0.00 | 80 | 1011.8 |
| 20260506234501 | 58 | 32 | 0.0 | 0.0 | 0.00 | 0.00 | 0.00 | 80 | 1012.2 |
| 20260506233100 | 58 | 12 | 0.0 | 0.0 | 0.00 | 0.00 | 0.00 | 81 | 1012.3 |
| 20260506231610 | 58 | 13 | 0.0 | 0.0 | 0.00 | 0.00 | 0.00 | 80 | 1012.7 |
| 20260506230110 | 59 | 15 | 0.0 | 0.0 | 0.00 | 0.00 | 0.00 | 81 | 1012.8 |
| 20260506224554 | 59 | 16 | 0.0 | 0.0 | 0.00 | 0.00 | 0.00 | 80 | 1013.0 |